CamptonHillsWeather.com

Find the Weather for any City, State  
or Zipcode, or Country:

Campton Hills, IL Weather
Local Radar

Local Radar

Graphs, Details
Graphs and Gauges
Detailed Weather
Detailed Reports
Ajax Version (old)
Central Kane Co Summary
Davis Current Weather Graphs
Davis 24 Hour Weather History

CW3778 Data

Weather Underground
Maps
Temperature
Heat Index
Windchill
Humidity
Radar
Dew Point
Wind
Visibility
Visible Satellite
Satellite
Fronts
Snow Depth
Jet Stream
Flight Rules
Forecast Maps
Temperature Forecast
Maximum Temperature Forecast
Minimum Temperature Forecast
Dewpoint Forecast
Prevalent Weather
12Hr Probability of Precip.
Sky Cover
Health Maps
UV Forecast
Air Quality
Peak Air Quality Index
Weather Station
Davis Instruments Vantage Pro
Current Conditions [Select Refresh to Update]

Updated: 8:58pm on 5/28/15

(location)
Currently:
72.2F

Clear
Clear

High: 83.5 F< 
(2:59pm
Low: 55.4 F 
(5:30am)
Wind: SE 0 mph
Calm
Gust: 0 mph
Today's High Wind: 13 mph (1:07pm)
Humidity: 61%
Pressure: 30.05 in  (Steady
Pressure Rate: -0.013 in/hr
Dew Point: 58.0F
Wind Chill: 72.2 F
Heat Index (feels like): 74.1 F
Comfort Level: Comfortable
Temperature Rate:  -3.82F/hr
 
5 Day Forecast
 
Fri Sat Sun Mon Tue
Clear Clear Clear Clear Clear
T-storms Rain Partly Cloudy Partly Cloudy Mostly Cloudy
82 62 64 68 75
45 42 44 50 60

Records and Normals
 
Temperature Forecast Normal Record
High 82 75 92
(2012)
Low 45 52 44
(2004)
 
Links
 
 
Weather Advisories
No Advisories
Full Advisory Text...
Weather Map

Web Cam

Almanac
 
Sunrise:  
5:22am
Moonrise: 
3:27pm

Moon Phase:
76%

Sunset: 
8:19pm
Moonset:  
2:40am
 Star Chart...
Rainfall Totals
Hourly Rain 0.00 in
Daily Rain: 0.00 in
Monthly Rain: 5.32 in
Yearly Rain: 11.17 in
Normal Rain, month to date: 4.08 in
Normal Rain, year to date: 10.65 in
Link to Village of Campton Hills Map

Link to Counties of Illinois Map

Local Weather Exchange Network
Station ID City 
(Click for Map Location)
Neighborhood 
(Click for History)
Last Update (Date & Time) Temperature
 ()
Dew
Point ()
Humidity 
(%)
Wind 
(mph)
from the Wind Gust 
(mph) 
Pressure(in) Hourly
Rain(in)
KILSAINT10 Saint Charles Saint Charles Burr Road 05/28 20:37:40 73.4 57.0 56 2 ESE 0 29.76 0.00
KILSTCHA10 St. Charles Hunt Club 05/28 20:49:24 75.4 36.0 24 0 SE 0 29.61 0.00
KILSAINT8 Saint Charles St. Charles Near West Side 05/28 20:41:57 72.5 56.0 56 0 ESE 0 29.85 0.00
KILWAYNE4 Wayne Hampton Course 05/28 20:46:11 74.3 60.0 60 0 North 0 30.17 0.00
KILSAINT7 Saint Charles Silver Glen 05/28 20:49:45 73.0 57.0 57 0 SE 0 29.66 0.00
KILCAMPT3 Campton Hills Campton Hills 05/28 20:50:02 74.4 55.0 51 0 SE 0 30.05 0.00
KILSAINT9 Saint Charles Fox Chase 05/28 20:49:49 73.4 56.0 54 0 South 0 30.05 0.00
KILGENEV6 Geneva Dover Ridge 05/28 20:49:59 74.3 57.0 54 0 SSE 0 30.02 0.00
KILGENEV10 Geneva Southampton Drive 05/28 20:46:23 73.4 59.0 60 0 North 0 30.14 0.00
KILSTCHA8 St. Charles Ronzheimer Ave. & S. Tyler Rd. 05/28 20:49:53 75.0 57.0 53 3 East 8 30.02 0.00
KILGENEV9 Geneva Saint Andrews Circle 05/28 20:46:18 75.6 61.0 60 0 North 0 30.15 0.00
KILGENEV3 Geneva Mill Creek (NE) 05/28 20:50:02 73.6 58.0 58 0 ESE 0 30.04 0.00
KILSTCHA1 St Charles CamptonHillsWeather.com Central Kane County 05/28 20:50:01 72.6 58.0 60 0 SE 0 30.05 0.00
KILGENEV7 Geneva Eldorado Drive 05/28 20:46:08 76.3 59.0 55 0 North 0 30.01 0.00
KILSOUTH5 South Elgin Concord Park 05/28 20:41:21 72.9 58.0 59 0 ENE 0 29.83 0.00
KILGENEV2 Geneva Mill Creek 05/28 20:36:11 74.6 57.0 54 3 East 4 30.00 0.00
KILBATAV7 Batavia Charleston Street 05/28 20:46:21 76.3 58.0 53 0 North 0 30.15 0.00
KILBATAV6 Batavia Tri Cities on the Fox River 2 05/28 20:30:12 71.9 53.0 51 3 SE 6 30.10 0.00
KILBATAV1 Batavia Tri-Cities on the Fox River 05/28 20:48:45 74.4 55.0 51 0 ENE 5 30.06 0.00
KILELGIN16 Elgin Providence Subdivision 05/28 20:37:51 73.8 53.0 49 0 NNW 0 29.83 0.00
KILELBUR10 Elburn Prairie Valley North 05/28 20:50:04 72.0 57.0 60 5 ESE 5 30.16 0.00
KILBATAV9 Batavia Deerpath Road 05/28 20:46:05 74.3 57.0 54 0 North 0 30.05 0.00
KILELBUR9 Elburn Griffith Avenue 05/28 20:45:50 76.8 58.0 51 0 North 0 29.28 0.00
KILELBUR5 Elburn Prairie Highlands 05/28 20:45:15 73.9 59.0 60 0 North 0 30.03 0.00
KILWESTC12 West Chicago Woodland Avenue 05/28 20:46:27 74.7 59.0 58 0 North 0 30.15 0.00
MD7322 Elburn APRSWXNET 05/28 20:12:00 75.0 56.0 52 0 South 0 30.04 0.00
KILBATAV3 Batavia West Batavia 05/28 20:39:42 73.9 59.0 60 2 ESE 0 30.01 0.00
KILELBUR6 Elburn Columbine Square 05/28 20:42:34 74.0 58.0 57 0 ESE 4 29.99 0.00
KILBATAV5 Batavia Fermi National Accelerator Laboratory 05/28 20:36:16 72.1 59.0 63 0 SSE 0 30.00 0.00
KILELBUR8 Elburn Columbine 05/28 20:43:44 74.3 56.0 54 1 East 3 30.02 0.00
KILWESTC5 West Chicago THEBROWNHOUSE.ORG 05/28 20:49:45 70.9 47.0 43 0 SE 0 30.07 0.00
KILWESTC8 West Chicago Ingalton Hills Estates 05/28 20:49:57 70.0 55.0 59 0 NNE 0 30.13 0.00
KILNORTH11 North Aurora Waterford Oaks 05/28 20:50:00 76.6 58.0 53 1 East 7 30.02 0.00
KILELGIN10 Elgin Wing Park, Elgin, IL 05/28 20:49:57 76.1 57.0 52 0 West 0 30.04 0.00
KILELGIN14 Elgin Elgin, IL 05/28 20:50:01 73.8 56.0 53 0 ENE 2 30.01 0.00
KDPA Chicago DuPage Official Station 05/28 19:52:00 76.0 53.0 45 8 East --- 30.07 ---
KARR Aurora Official Station 05/28 19:52:00 75.0 54.0 48 6 ESE --- 30.07 ---
KDKB DeKalb Official Station 05/28 20:35:00 69.0 54.0 58 8 ESE --- 30.08 ---
KORD Chicago Official Station 05/28 19:51:00 75.0 53.0 46 10 East --- 30.08 ---
Full Advisory Text
No Warnings

Ambient Weather and Weather Underground
 Never base important decisions on this or any weather information obtained from the Internet
Updated Automatically by Ambient Weather's Virtual Weather Station  V13.01